Vorticity
15 8 -6 -1 12 10 4 4 1 -1 4 0 2 11 4 13 13 1 9 18 24 13 13 10 8 9 11 12 6 6 5 1 10 10 -1 7 7 11 3 13 11 15 10 15
7 5 17 8 4 2 -1 4 10 5 16 -1 5 4 9 1 -10 12 21 15 16 13 8 9 8 11 13 8 3 5 6 15 -2 5 3 8 8 0 2 -2 6 1 0 23
-5 22 18 3 -8 11 0 4 3 18 -8 9 10 4 10 17 19 21 11 12 9 10 9 8 11 15 2 9 6 -5 13 -3 7 10 22 2 5 9 0 3 12 -3 -7 22
18 23 9 20 26 10 9 12 4 4 8 4 12 6 18 23 19 13 13 8 9 9 7 7 8 4 2 -0 4 9 12 -5 14 6 7 0 7 13 17 18 6 39 23 16
21 22 23 19 26 31 23 12 21 17 21 14 15 28 23 14 15 14 5 11 14 12 14 3 12 4 4 10 -16 -1 11 2 9 3 7 8 6 3 10 15 22 1 -16 12
7 6 -2 16 9 4 18 16 30 11 10 18 24 24 9 17 6 7 17 8 10 16 9 13 4 15 16 -9 5 16 0 12 11 6 6 8 10 3 18 32 -9 -36 10 7
19 2 0 11 19 14 17 5 16 30 24 15 12 14 12 14 17 14 7 10 11 7 13 5 10 13 2 2 0 4 5 20 8 -4 9 3 -1 31 14 5 10 18 9 12
11 -0 4 6 7 10 8 11 20 -15 -8 13 14 11 18 11 17 6 10 22 21 7 5 -3 -8 7 -1 6 0 3 4 6 13 9 15 18 13 5 9 10 8 11 13 17
4 18 15 21 8 -3 12 -2 30 6 26 12 12 10 2 2 16 4 7 11 3 2 26 -5 1 3 8 -1 0 0 3 14 11 10 11 10 9 8 8 11 15 19 11 15
10 -6 -14 -9 33 32 2 -9 30 21 8 8 5 7 4 3 13 16 22 25 2 14 2 2 4 2 -6 -2 -1 -4 10 12 11 9 10 6 9 12 18 18 11 20 16 15
-2 8 -1 5 3 35 17 15 5 -9 -1 -2 15 4 -2 44 15 -3 11 1 18 -1 14 13 6 5 -3 0 -12 12 13 11 9 8 13 13 12 19 11 17 17 16 14 12
-8 17 25 39 69 41 19 29 22 26 31 31 13 26 13 24 24 -5 24 8 -8 -24 16 11 10 5 2 -6 11 14 9 11 14 12 12 13 11 12 18 18 14 13 19 36
-8 0 4 11 -18 4 9 20 18 -1 20 29 5 20 18 44 48 20 3 -1 35 15 9 18 16 6 4 10 16 10 13 6 7 8 14 14 16 20 21 3 19 17 26 32
8 -13 -20 -3 -7 -17 -2 -12 2 -1 -12 -6 0 4 -4 5 16 18 21 33 5 -1 2 6 7 -0 15 16 13 15 4 5 11 19 16 23 15 17 1 9 27 16 16 16
24 40 14 18 11 5 2 15 14 12 14 16 9 13 15 18 6 18 29 9 4 9 4 1 8 17 16 13 19 4 7 17 17 17 20 16 15 5 7 12 20 2 16 10
27 45 6 6 -0 16 6 19 3 4 5 13 24 23 28 30 27 18 1 3 2 6 -1 23 15 13 12 15 9 13 8 8 14 15 18 16 9 7 13 11 9 -7 17 5
15 43 7 18 -0 10 57 8 10 10 27 25 26 10 9 16 7 2 7 8 9 29 11 9 9 12 5 -0 2 4 14 16 25 21 14 10 9 2 -1 15 5 -3 21 7
7 8 20 31 35 7 -2 3 31 36 14 -4 6 6 4 7 5 7 11 14 11 7 9 13 9 6 10 14 18 21 16 23 20 9 7 6 8 6 3 12 25 19 12 7
11 15 9 25 29 24 24 35 20 14 5 6 9 9 6 8 10 12 9 11 10 13 14 15 16 17 14 14 15 16 16 16 6 15 3 -0 2 9 5 20 28 17 9 7
60 18 68 2 11 14 13 -6 11 12 9 9 9 9 8 8 12 11 9 13 16 15 13 9 10 15 14 15 16 15 14 5 11 3 3 7 11 8 6 25 19 14 11 14
3 11 17 19 -7 10 12 6 10 12 7 5 7 10 16 16 14 15 13 9 7 8 8 11 13 14 12 12 18 11 5 10 7 4 3 9 9 10 14 18 14 14 15 10
-10 13 17 8 13 11 9 7 7 7 10 12 12 12 9 6 6 6 8 9 10 9 14 13 12 10 12 13 17 11 5 6 -2 1 7 15 10 13 16 15 14 11 14 16
7 13 14 11 13 12 10 11 9 6 5 8 6 3 11 12 11 11 10 10 13 14 11 10 10 11 15 15 14 11 6 7 1 6 13 13 13 16 13 14 16 18 16 13
13 19 20 14 9 6 6 4 4 8 12 17 16 12 4 7 10 11 13 12 11 10 9 10 10 15 16 10 12 12 9 6 6 10 19 16 15 16 10 9 12 13 10 9
7 7 6 6 7 8 9 10 12 14 13 9 5 6 9 13 13 11 10 10 10 12 13 15 16 12 11 11 14 11 6 7 14 25 19 13 12 10 10 9 13 14 19 15
14 12 10 9 9 10 12 12 11 7 8 10 10 12 10 11 10 10 9 12 12 11 15 16 12 11 11 7 6 8 18 19 20 14 13 13 8 5 7 12 14 13 21 19
13 14 15 15 14 13 12 10 12 12 12 11 12 9 10 10 12 14 14 16 19 17 9 10 8 5 9 17 21 23 14 9 9 8 8 10 8 10 13 13 13 13 16 21
Height
5634 5646 5649 5655 5664 5672 5672 5682 5683 5688 5694 5704 5708 5712 5717 5719 5720 5719 5718 5720 5721 5724 5725 5728 5730 5730 5731 5731 5730 5728 5726 5726 5724 5720 5716 5710 5705 5702 5698 5692 5687 5681 5674 5668
5618 5628 5630 5634 5643 5651 5655 5661 5667 5675 5676 5686 5693 5700 5705 5706 5708 5708 5705 5708 5709 5711 5712 5717 5719 5719 5719 5720 5719 5718 5717 5715 5712 5709 5703 5698 5694 5690 5685 5678 5672 5666 5658 5653
5601 5611 5610 5606 5624 5635 5639 5647 5653 5655 5670 5678 5681 5687 5692 5695 5693 5693 5693 5694 5696 5698 5702 5706 5707 5708 5710 5710 5709 5708 5707 5705 5702 5698 5692 5686 5682 5676 5669 5663 5656 5649 5642 5638
5591 5588 5581 5605 5622 5623 5627 5634 5641 5646 5653 5659 5664 5672 5678 5679 5677 5678 5681 5682 5686 5689 5692 5694 5696 5698 5700 5698 5699 5697 5696 5693 5689 5683 5678 5673 5667 5661 5656 5648 5641 5634 5631 5625
5569 5573 5580 5590 5607 5611 5612 5621 5628 5637 5643 5645 5648 5653 5658 5661 5663 5666 5674 5675 5676 5678 5682 5684 5687 5686 5687 5688 5687 5684 5680 5677 5673 5669 5664 5659 5654 5648 5642 5635 5632 5624 5616 5610
5559 5562 5565 5595 5595 5602 5603 5597 5618 5618 5622 5626 5632 5634 5644 5653 5657 5659 5661 5662 5665 5668 5670 5672 5674 5676 5676 5676 5674 5670 5667 5664 5660 5656 5651 5645 5640 5635 5632 5623 5616 5608 5599 5592
5548 5554 5559 5575 5581 5584 5583 5606 5608 5607 5611 5616 5619 5630 5638 5639 5641 5644 5648 5651 5653 5655 5657 5659 5662 5663 5663 5660 5657 5656 5654 5652 5647 5643 5638 5632 5629 5624 5620 5611 5603 5593 5586 5577
5538 5543 5552 5560 5563 5571 5585 5588 5592 5598 5601 5602 5607 5613 5620 5625 5629 5633 5637 5639 5641 5643 5645 5650 5651 5651 5649 5647 5646 5644 5640 5637 5632 5627 5624 5619 5614 5609 5601 5594 5586 5577 5568 5559
5532 5541 5550 5552 5554 5560 5568 5576 5581 5586 5590 5594 5599 5604 5610 5612 5617 5621 5624 5627 5629 5632 5637 5638 5638 5637 5636 5634 5632 5629 5627 5623 5619 5614 5609 5604 5598 5592 5586 5577 5570 5561 5551 5542
5521 5532 5540 5546 5546 5550 5557 5562 5569 5575 5581 5584 5588 5594 5598 5602 5606 5609 5612 5615 5617 5620 5622 5623 5623 5623 5623 5620 5620 5618 5614 5610 5604 5598 5594 5589 5583 5577 5570 5562 5554 5546 5536 5527
5512 5519 5527 5536 5541 5544 5548 5552 5559 5564 5568 5573 5578 5583 5587 5590 5592 5595 5599 5601 5605 5607 5608 5609 5609 5610 5609 5609 5607 5604 5599 5594 5589 5586 5581 5574 5568 5561 5554 5547 5539 5531 5523 5513
5507 5519 5521 5527 5531 5529 5538 5542 5546 5553 5557 5562 5567 5570 5575 5578 5582 5585 5586 5589 5593 5594 5594 5596 5597 5597 5597 5596 5594 5588 5584 5580 5575 5570 5564 5559 5553 5547 5541 5534 5528 5521 5511 5500
5496 5504 5509 5517 5515 5522 5528 5532 5536 5542 5547 5550 5555 5560 5564 5567 5569 5573 5577 5579 5580 5581 5584 5585 5585 5585 5584 5582 5577 5573 5570 5566 5561 5555 5551 5547 5541 5535 5531 5525 5520 5513 5504 5495
5485 5489 5498 5509 5513 5513 5517 5522 5526 5531 5536 5542 5546 5549 5553 5557 5559 5561 5562 5563 5566 5569 5570 5571 5571 5570 5568 5565 5561 5559 5556 5552 5548 5545 5539 5534 5530 5527 5523 5519 5513 5507 5501 5496
5471 5476 5487 5493 5498 5501 5506 5510 5515 5521 5523 5528 5532 5537 5541 5545 5547 5547 5548 5551 5554 5555 5556 5555 5555 5554 5552 5551 5549 5548 5544 5539 5536 5530 5527 5524 5522 5518 5514 5512 5507 5503 5499 5495
5459 5463 5473 5479 5485 5490 5494 5499 5503 5507 5510 5514 5519 5523 5526 5529 5532 5535 5537 5539 5540 5542 5543 5544 5543 5540 5539 5537 5537 5533 5529 5527 5523 5521 5519 5516 5513 5511 5508 5505 5501 5498 5494 5491
5449 5452 5461 5469 5474 5479 5483 5488 5490 5493 5496 5501 5506 5510 5513 5517 5520 5524 5526 5528 5529 5530 5529 5528 5527 5526 5525 5524 5522 5519 5518 5514 5514 5511 5510 5507 5506 5504 5500 5497 5494 5491 5488 5485
5438 5445 5451 5458 5463 5468 5472 5476 5479 5483 5486 5490 5493 5497 5501 5506 5509 5511 5514 5515 5516 5516 5516 5515 5514 5515 5514 5511 5508 5508 5506 5506 5503 5503 5502 5501 5499 5495 5492 5488 5485 5483 5481 5479
5431 5437 5442 5446 5450 5456 5461 5464 5470 5476 5479 5479 5483 5487 5490 5494 5498 5501 5503 5504 5505 5505 5505 5504 5504 5502 5500 5498 5496 5495 5496 5495 5495 5496 5495 5492 5490 5486 5483 5479 5476 5475 5474 5472
5421 5428 5433 5435 5439 5444 5450 5455 5460 5464 5465 5468 5473 5475 5479 5482 5486 5488 5488 5490 5492 5491 5492 5490 5489 5489 5489 5488 5487 5486 5486 5486 5487 5487 5486 5483 5480 5478 5474 5471 5469 5468 5467 5466
5413 5417 5421 5426 5429 5434 5440 5445 5449 5452 5454 5457 5460 5464 5468 5471 5473 5475 5477 5479 5480 5478 5477 5478 5479 5480 5479 5478 5478 5478 5478 5479 5479 5478 5477 5474 5471 5469 5465 5463 5461 5460 5460 5459
5403 5408 5412 5417 5421 5425 5431 5436 5439 5441 5444 5448 5451 5454 5457 5460 5463 5466 5466 5466 5466 5467 5468 5469 5469 5468 5467 5467 5468 5470 5470 5470 5470 5469 5467 5465 5462 5459 5457 5455 5454 5453 5452 5451
5393 5397 5403 5408 5411 5416 5420 5425 5428 5432 5435 5439 5442 5445 5448 5450 5450 5451 5453 5455 5456 5457 5457 5458 5458 5457 5457 5459 5460 5460 5461 5461 5460 5458 5456 5454 5452 5450 5449 5447 5446 5445 5444 5443
5387 5391 5395 5400 5403 5407 5412 5415 5419 5423 5427 5430 5432 5434 5435 5437 5439 5441 5442 5444 5446 5447 5448 5447 5446 5448 5449 5450 5451 5451 5451 5451 5450 5448 5446 5445 5443 5442 5441 5440 5438 5438 5437 5436
5378 5382 5386 5391 5395 5400 5404 5407 5410 5413 5416 5419 5421 5423 5425 5428 5430 5431 5433 5434 5434 5435 5436 5437 5439 5440 5441 5441 5441 5441 5441 5440 5439 5437 5436 5435 5435 5434 5433 5432 5431 5430 5428 5428
5370 5374 5379 5384 5388 5392 5395 5398 5401 5403 5407 5410 5412 5414 5415 5417 5418 5420 5420 5422 5423 5425 5428 5429 5430 5431 5431 5432 5432 5431 5430 5429 5428 5428 5428 5427 5427 5426 5425 5424 5423 5422 5420 5419
5362 5366 5370 5374 5377 5381 5384 5387 5391 5395 5397 5399 5401 5403 5404 5406 5406 5407 5409 5412 5415 5418 5419 5421 5422 5422 5422 5422 5421 5420 5420 5420 5420 5419 5419 5419 5418 5418 5417 5417 5416 5414 5413 5412